Skip Navigation Links weather.gov 
NOAA logo-Select to go to the NOAA homepage NDBC Title GraphicClick to go to NDBC home page   Select to go to the NWS homepage
Home About Us Contact Us
 
 
    
    Station List

 Data Access
    Mobile Access
    Classic Maps
         Recent
         DART®
    Obs Search
    Ship Obs Report
    BuoyCAMs
    TAO
    DODS
    OceanSITES
    HF Radar
    OSMC
    Dial-A-Buoy
    RSS Feeds Image indicating link to RSS feed access page
    Web Widget
    Email Access
    Web Data Guide
    Maintenance Schedule
    Station Status Report

 Program Info
    TAO
    DART®
    IOOS®

 Publications
    NDBC PEA
    NDBC FONSI
    NDBC DQC Handbook

 FAQ
 Visitor Information
 
USA.gov is the U.S. government's official web portal to all federal, state and local government web resources and services.

Station YKRV2 - 8637611 - York River East Rear Range Light, VA Image indicating link to RSS feed of recent meteorological observations for station YKRV2

Large icon indicates selected station.
yellow diamond Stations with recent data
red diamond Stations with no data in last 8 hours
     (24 hours for tsunami stations)


Conditions at YKRV2 as of
(5:30 am EST)
1030 GMT on 12/11/2018:
     

Click on the graph icon in the table below to see a time series plot of the last five days of that observation.

5-day plot - Wind Direction Wind Direction (WDIR): N ( 10 deg true )
5-day plot - Wind Speed Wind Speed (WSPD): 14 kts
5-day plot - Wind Gust Wind Gust (GST): 16 kts
5-day plot - Atmospheric Pressure Atmospheric Pressure (PRES): 30.14 in
5-day plot - Air Temperature Air Temperature (ATMP): 36.0 °F
5-day plot - Wind Chill Wind Chill (CHILL): 26.2 °F
5-day plot - Wind Speed at 10 Meters Wind Speed at 10 meters (WSPD10M): 16 kts
5-day plot - Wind Speed at 10 Meters Wind Speed at 20 meters (WSPD20M): 16 kts
5-day plot - Wind Speed, Wind Gust and Atmospheric Pressure Combined plot of Wind Speed, Gust, and Air Pressure
NOS Water Level Observation Network Water Level
Previous observations
5-day plot - Wind Direction 5-day plot - Wind Speed 5-day plot - Wind Gust 5-day plot - Wave Height 5-day plot - Dominant Wave Period 5-day plot - Average Period 5-day plot - Mean Wave Direction 5-day plot - Atmospheric Pressure 5-day plot - Pressure Tendency 5-day plot - Air Temperature 5-day plot - Water Temperature 5-day plot - Dew Point 5-day plot - Salinity 5-day plot - Visibility 5-day plot - Tide (above MLLW)
MM DD TIME
(EST)
WDIR WSPD
kts
GST
kts
WVHT
ft
DPD
sec
APD
sec
MWD PRES
in
PTDY
in
ATMP
°F
WTMP
°F
DEWP
°F
SAL
psu
VIS
nmi
TIDE
ft
1211 5:24 am N 14 16----30.14- 35.8-----
1211 5:18 am N 15 17----30.14- 35.6-----
1211 5:12 am N 14 16----30.14- 35.8-----
1211 5:06 am N 15 16----30.14- 36.0-----
1211 5:00 am N 14 16----30.14-0.02 36.0-----
1211 4:54 am N 14 17----30.14- 36.1-----
1211 4:48 am N 15 17----30.14- 36.0-----
1211 4:42 am N 16 17----30.13- 35.8-----
1211 4:36 am N 16 18----30.13- 36.1-----
1211 4:30 am N 14 16----30.14- 36.0-----
1211 4:24 am N 15 16----30.14- 36.0-----
1211 4:18 am N 15 17----30.14- 35.8-----
1211 4:12 am N 15 17----30.14- 36.0-----
1211 4:06 am N 15 17----30.14- 36.0-----
1211 4:00 am N 14 16----30.14-0.02 36.1-----
1211 3:54 am N 15 17----30.15- 36.1-----
1211 3:48 am N 15 17----30.15- 36.3-----
1211 3:42 am N 15 17----30.15- 36.3-----
1211 3:36 am N 16 17----30.15- 36.1-----
1211 3:30 am N 16 18----30.15- 36.1-----
1211 3:24 am N 16 18----30.15- 36.5-----
1211 3:18 am N 15 17----30.15- 36.7-----
1211 3:12 am N 15 17----30.15- 36.7-----
1211 3:06 am N 16 18----30.15- 36.5-----
1211 3:00 am N 16 19----30.16-0.02 36.5-----
1211 2:54 am N 15 17----30.16- 36.3-----
1211 2:48 am N 15 17----30.16- 36.3-----
1211 2:42 am N 15 16----30.16- 36.5-----
1211 2:36 am N 15 18----30.16- 36.5-----
1211 2:30 am N 15 17----30.16- 36.5-----
1211 2:24 am N 14 17----30.16- 36.7-----
1211 2:18 am N 15 18----30.16- 37.0-----
1211 2:12 am N 16 17----30.16- 36.9-----
1211 2:06 am N 15 17----30.16- 37.0-----
1211 2:00 am N 14 17----30.16-0.02 37.0-----
1211 1:54 am N 15 16----30.16- 36.9-----
1211 1:48 am N 15 17----30.16- 36.9-----
1211 1:42 am N 15 18----30.16- 37.0-----
1211 1:36 am N 15 18----30.16- 37.4-----
1211 1:30 am N 16 18----30.16- 37.2-----
1211 1:24 am N 16 18----30.16- 37.2-----
1211 1:18 am N 16 18----30.16- 37.2-----
1211 1:12 am N 16 18----30.16- 37.2-----
1211 1:06 am N 16 17----30.16- 37.0-----
1211 1:00 am N 16 18----30.16-0.01 37.0-----
121112:54 am N 15 17----30.16- 37.2-----
121112:48 am N 15 17----30.16- 37.2-----
121112:42 am N 14 16----30.16- 37.0-----
121112:36 am N 14 17----30.16- 37.2-----
121112:30 am N 15 17----30.16- 37.2-----
121112:24 am N 14 16----30.17- 37.2-----
121112:18 am N 14 16----30.17- 37.0-----
121112:12 am N 13 16----30.17- 37.0-----
121112:06 am N 13 15----30.17- 37.2-----
121112:00 am N 13 14----30.18+0.01 37.0-----
121011:54 pm N 12 13----30.18- 37.0-----
121011:48 pm N 12 13----30.18- 37.2-----
121011:42 pm N 12 14----30.18- 37.2-----
121011:36 pm N 12 13----30.18- 37.2-----
121011:30 pm N 12 13----30.18- 37.2-----
121011:24 pm N 12 14----30.18- 37.0-----
121011:18 pm N 12 14----30.18- 37.6-----
121011:12 pm N 12 14----30.18- 37.4-----
121011:06 pm N 12 15----30.18- 37.4-----
121011:00 pm N 12 15----30.18+0.01 37.6-----
121010:54 pm N 12 13----30.18- 37.2-----
121010:48 pm N 11 13----30.18- 37.6-----
121010:42 pm N 12 13----30.18- 37.4-----
121010:36 pmNNE 11 13----30.18- 37.4-----
121010:30 pm N 12 14----30.18- 37.6-----
121010:24 pm N 12 13----30.18- 37.2-----
121010:18 pmNNE 12 15----30.18- 37.4-----
121010:12 pmNNE 12 14----30.18- 37.4-----
121010:06 pmNNE 12 13----30.18- 37.4-----
121010:00 pm N 13 15----30.18+0.02 37.2-----
1210 9:54 pm N 13 15----30.18- 37.0-----
1210 9:48 pm N 12 14----30.18- 37.4-----
1210 9:42 pm N 14 16----30.17- 37.2-----
1210 9:36 pm N 13 15----30.17- 37.0-----
1210 9:30 pm N 14 16----30.17- 37.2-----
1210 9:24 pm N 14 18----30.17- 37.4-----
1210 9:18 pm N 15 18----30.17- 37.2-----
1210 9:12 pm N 15 17----30.17- 37.2-----
1210 9:06 pm N 15 17----30.16- 37.2-----
1210 9:00 pm N 14 16----30.17+0.02 37.4-----
1210 8:54 pm N 14 16----30.17- 37.0-----
1210 8:48 pm N 15 17----30.16- 37.0-----
1210 8:42 pm N 14 17----30.16- 36.9-----
1210 8:36 pm N 13 15----30.16- 36.9-----
1210 8:30 pm N 15 16----30.16- 36.9-----
1210 8:24 pm N 14 16----30.16- 36.9-----
1210 8:18 pm N 14 16----30.16- 36.7-----
1210 8:12 pm N 15 16----30.16- 36.7-----
1210 8:06 pm N 15 16----30.16- 36.7-----
1210 8:00 pm N 15 17----30.16+0.04 36.7-----
1210 7:54 pm N 15 16----30.16- 36.5-----
1210 7:48 pm N 14 16----30.16- 36.5-----
1210 7:42 pm N 15 16----30.16- 36.5-----
1210 7:36 pm N 14 17----30.16- 36.7-----
1210 7:30 pm N 15 17----30.16- 36.5-----
1210 7:24 pm N 15 17----30.16- 36.5-----
1210 7:18 pm N 15 16----30.16- 36.5-----
1210 7:12 pm N 14 16----30.16- 36.7-----
1210 7:06 pm N 16 17----30.16- 36.5-----
1210 7:00 pm N 16 18----30.15+0.05 36.5-----
1210 6:54 pm N 17 19----30.15- 36.3-----
1210 6:48 pm N 16 18----30.15- 36.5-----
1210 6:42 pm N 16 18----30.15- 36.9-----
1210 6:36 pm N 17 19----30.15- 36.5-----
1210 6:30 pm N 16 18----30.15- 36.5-----
1210 6:24 pm N 16 17----30.15- 36.5-----
1210 6:18 pm N 16 18----30.14- 36.7-----
1210 6:12 pm N 17 19----30.14- 36.7-----
1210 6:06 pm N 15 17----30.15- 36.9-----
1210 6:00 pm N 14 17----30.15+0.06 37.0-----
1210 5:54 pm N 16 18----30.14- 37.4-----
1210 5:48 pmNNE 16 20----30.15- 37.4-----
1210 5:42 pmNNE 15 17----30.14- 37.2-----
1210 5:36 pmNNE 14 16----30.15- 37.0-----
1210 5:30 pm N 13 15----30.15- 37.0-----
1210 5:24 pmNNE 14 16----30.15- 37.0-----
1210 5:18 pmNNE 12 16----30.14- 37.0-----
1210 5:12 pmNNE 14 16----30.14- 37.0-----
1210 5:06 pmNNE 14 16----30.14- 37.2-----
1210 5:00 pmNNE 15 17----30.13+0.05 37.0-----
1210 4:54 pmNNE 16 20----30.13- 37.0-----
1210 4:48 pmNNE 16 19----30.13- 36.9-----
1210 4:42 pmNNE 16 20----30.12- 36.9-----
1210 4:36 pmNNE 18 21----30.11- 36.9-----
1210 4:30 pmNNE 18 21----30.11- 36.9-----
1210 4:24 pmNNE 18 22----30.11- 36.9-----
1210 4:18 pmNNE 18 21----30.10- 36.9-----
1210 4:12 pmNNE 18 22----30.10- 36.9-----
1210 4:06 pmNNE 19 22----30.10- 37.0-----
1210 4:00 pmNNE 19 23----30.10+0.02 37.0-----
1210 3:54 pmNNE 19 22----30.10- 36.9-----
1210 3:48 pmNNE 18 21----30.09- 37.2-----
1210 3:42 pmNNE 19 25----30.09- 37.0-----
1210 3:36 pmNNE 17 21----30.09- 37.4-----
1210 3:30 pmNNE 17 21----30.09- 37.2-----
1210 3:24 pmNNE 19 22----30.09- 37.4-----
1210 3:18 pm N 18 20----30.09- 37.4-----
1210 3:12 pmNNE 17 20----30.09- 37.2-----
1210 3:06 pmNNE 19 22----30.09- 37.2-----
1210 3:00 pmNNE 19 22----30.09+0.00 37.6-----
1210 2:54 pm N 19 22----30.09- 37.2-----
1210 2:48 pmNNE 20 23----30.08- 37.2-----
1210 2:42 pm N 22 23----30.08- 37.0-----
1210 2:36 pm N 20 23----30.08- 37.2-----
1210 2:30 pm N 20 23----30.08- 37.0-----
1210 2:24 pmNNE 21 25----30.08- 36.9-----
1210 2:18 pm N 20 24----30.08- 37.0-----
1210 2:12 pmNNE 19 21----30.08- 36.9-----
1210 2:06 pmNNE 20 24----30.08- 36.9-----
1210 2:00 pmNNE 21 24----30.08-0.03 36.9-----
1210 1:54 pmNNE 22 25----30.07- 36.7-----
1210 1:48 pmNNE 21 25----30.08- 37.0-----
1210 1:42 pmNNE 22 25----30.08- 36.5-----
1210 1:36 pmNNE 21 24----30.08- 36.7-----
1210 1:30 pmNNE 20 23----30.09- 36.7-----
1210 1:24 pmNNE 20 23----30.09- 36.9-----
1210 1:18 pm N 21 25----30.08- 36.7-----
1210 1:12 pm N 21 24----30.08- 36.7-----
1210 1:06 pmNNE 19 22----30.08- 36.7-----
1210 1:00 pmNNE 21 25----30.08-0.01 36.5-----
121012:54 pmNNE 21 25----30.08- 36.5-----
121012:48 pmNNE 19 22----30.08- 36.5-----
121012:42 pmNNE 21 23----30.08- 36.1-----
121012:36 pmNNE 21 25----30.08- 36.3-----
121012:30 pmNNE 19 23----30.08- 36.3-----
121012:24 pmNNE 19 22----30.08- 36.1-----
121012:18 pmNNE 21 24----30.08- 36.3-----
121012:12 pmNNE 20 24----30.08- 36.3-----
121012:06 pmNNE 22 25----30.09- 36.5-----
121012:00 pmNNE 20 24----30.09+0.02 36.9-----
121011:54 amNNE 21 25----30.09- 36.7-----
121011:48 amNNE 21 24----30.09- 37.0-----
121011:42 amNNE 19 22----30.10- 36.7-----
121011:36 amNNE 19 23----30.10- 36.9-----
121011:30 amNNE 19 22----30.10- 36.7-----
121011:24 amNNE 18 21----30.10- 36.7-----
121011:18 amNNE 18 22----30.10- 36.7-----
121011:12 amNNE 20 23----30.10- 36.3-----
121011:06 amNNE 19 22----30.10- 36.5-----
121011:00 amNNE 21 24----30.10+0.06 36.5-----
121010:54 am N 22 25----30.11- 36.5-----
121010:48 am N 20 22----30.11- 36.5-----
121010:42 amNNE 20 23----30.10- 36.7-----
121010:36 amNNE 22 26----30.10- 36.5-----
121010:30 amNNE 23 25----30.10- 36.1-----
121010:24 amNNE 23 27----30.10- 36.3-----
121010:18 amNNE 20 25----30.10- 36.9-----
121010:12 amNNE 21 25----30.10- 36.3-----
121010:06 amNNE 22 26----30.09- 36.1-----
121010:00 amNNE 21 25----30.09+0.07 36.3-----
1210 9:54 amNNE 23 26----30.09- 36.1-----
1210 9:48 amNNE 24 26----30.09- 36.1-----
1210 9:42 amNNE 23 27----30.08- 36.5-----
1210 9:36 amNNE 23 26----30.08- 36.1-----
1210 9:30 amNNE 24 27----30.07- 36.7-----
1210 9:24 amNNE 25 29----30.07- 36.3-----
1210 9:18 amNNE 23 27----30.07- 36.5-----
1210 9:12 amNNE 24 28----30.07- 36.5-----
1210 9:06 amNNE 24 27----30.07- 36.3-----
1210 9:00 amNNE 25 27----30.07+0.06 36.3-----
1210 8:54 amNNE 25 28----30.07- 36.3-----
1210 8:48 amNNE 25 29----30.06- 36.5-----
1210 8:42 amNNE 23 28----30.06- 36.7-----
1210 8:36 amNNE 22 26----30.07- 36.9-----
1210 8:30 amNNE 22 26----30.07- 36.9-----
1210 8:24 amNNE 22 25----30.06- 37.0-----
1210 8:18 amNNE 22 28----30.06- 37.0-----
1210 8:12 amNNE 23 27----30.06- 36.9-----
1210 8:06 amNNE 20 23----30.06- 37.4-----
1210 8:00 amNNE 23 27----30.05+0.05 37.0-----
1210 7:54 amNNE 22 25----30.05- 37.2-----
1210 7:48 amNNE 21 24----30.05- 37.2-----
1210 7:42 amNNE 22 25----30.04- 37.0-----
1210 7:36 amNNE 22 25----30.04- 37.2-----
1210 7:30 amNNE 21 24----30.04- 37.2-----
1210 7:24 amNNE 21 24----30.04- 37.2-----
1210 7:18 amNNE 23 28----30.03- 37.4-----
1210 7:12 amNNE 22 26----30.03- 37.6-----
1210 7:06 amNNE 25 28----30.03- 37.8-----
1210 7:00 amNNE 26 32----30.02+0.04 37.6-----
1210 6:54 amNNE 25 29----30.02- 37.9-----
1210 6:48 amNNE 24 28----30.02- 38.1-----
1210 6:42 amNNE 26 28----30.01- 37.8-----
1210 6:36 amNNE 24 27----30.01- 38.3-----
1210 6:30 amNNE 26 30----30.01- 38.1-----
1210 6:24 amNNE 25 28----30.01- 38.3-----
1210 6:18 amNNE 25 27----30.01- 38.3-----
1210 6:12 amNNE 24 27----30.01- 38.7-----
1210 6:06 amNNE 24 27----30.01- 38.5-----
1210 6:00 amNNE 22 26----30.01+0.01 38.7-----
1210 5:54 amNNE 23 26----30.01- 38.3-----
1210 5:48 amNNE 23 26----30.00- 38.5-----
1210 5:42 amNNE 24 28----30.00- 38.7-----
1210 5:36 amNNE 25 28----29.99- 38.3-----
1210 5:30 amNNE 23 26----30.00- 38.3-----
1210 5:24 amNNE 23 26----30.00- 38.3-----
1210 5:18 amNNE 25 28----30.00- 38.1-----
1210 5:12 amNNE 22 25----30.00- 38.3-----
1210 5:06 amNNE 22 26----30.00- 38.1-----
1210 5:00 amNNE 23 27----29.99+0.00 38.1-----
1210 4:54 amNNE 25 29----29.99- 38.1-----

Description of Measurements

Links which are specific to this station are listed below:

Real Time Data in tabular form for the last forty-five days.

Historical Data & Climatic Summaries for quality controlled data for the current month, previous months, and previous years.